Stations météo

réclame
Mon MeteoGroup
Berlin/Alexanderplatz, Allemagne (10389): Température de l'air & dewpoint: 12.11.2018 05:00:00 - 18.11.2018 05:00:00 (CET)Berlin/Alexanderplatz, Allemagne (10389): Température de l'air -5cm: 12.11.2018 05:00:00 - 18.11.2018 05:00:00 (CET)Berlin/Alexanderplatz, Allemagne (10389): Température de l'air -20cm & Température de l'air -100cm: 12.11.2018 05:00:00 - 18.11.2018 05:00:00 (CET)Berlin/Alexanderplatz, Allemagne (10389): Ensoleillement: 12.11.2018 05:00:00 - 18.11.2018 05:00:00 (CET)Berlin/Alexanderplatz, Allemagne (10389): Quantités de précipitations: 12.11.2018 05:00:00 - 18.11.2018 05:00:00 (CET)
Date & Time tt [°C] td [°C] tt -5cm [°C] tt -20cm [°C] tt -100cm [°C] sd [min] rr [mm]
18.11.2018 05:00:00 - - - - - - -
18.11.2018 04:00:00 - - - - - - -
18.11.2018 03:00:00 - - - - - - -
18.11.2018 02:00:00 - - - - - - -
18.11.2018 01:00:00 -0,3 -3,3 0,1 3,7 10,6 0 0,0
18.11.2018 00:00:00 0,2 -3,2 0,2 3,8 10,6 0 0,0
17.11.2018 23:00:00 0,4 -3,0 0,2 3,8 10,7 0 0,0
17.11.2018 22:00:00 0,8 -2,8 0,3 3,9 10,7 0 0,0
17.11.2018 21:00:00 1,2 -2,4 0,3 3,9 10,7 0 0,0
17.11.2018 20:00:00 2,0 -2,7 0,3 4,0 10,7 0 0,0
17.11.2018 19:00:00 2,5 -2,2 0,3 4,0 10,7 0 0,0
17.11.2018 18:00:00 2,9 -1,3 -0,2 4,1 10,7 0 0,0
17.11.2018 17:00:00 3,8 -1,4 0,0 4,2 10,8 0 0,0
17.11.2018 16:00:00 4,6 -2,3 0,5 4,2 10,8 0 0,0
17.11.2018 15:00:00 4,9 -2,4 1,0 4,2 10,7 3 0,0
17.11.2018 14:00:00 5,4 -2,9 1,2 4,2 10,7 55 0,0
17.11.2018 13:00:00 5,5 -0,8 0,6 4,2 10,8 60 0,0
17.11.2018 12:00:00 4,5 -0,7 0,3 4,3 10,8 60 0,0
17.11.2018 11:00:00 3,7 0,0 0,3 4,3 10,9 28 0,0
17.11.2018 10:00:00 1,9 -0,4 0,3 4,4 10,9 1 0,0
17.11.2018 09:00:00 1,4 -0,4 0,3 4,5 10,9 0 0,0
17.11.2018 08:00:00 1,2 -0,4 0,3 4,5 10,9 0 0,0
17.11.2018 07:00:00 1,1 -0,4 0,0 4,7 10,9 0 0,0
17.11.2018 06:00:00 1,3 -0,3 -0,9 4,9 10,9 0 0,0
17.11.2018 05:00:00 1,7 -0,2 -0,6 5,0 10,9 0 0,0
17.11.2018 04:00:00 2,2 -0,1 -0,2 5,2 11,0 0 0,0
17.11.2018 03:00:00 2,5 0,2 0,2 5,4 11,0 0 0,0
17.11.2018 02:00:00 3,0 0,4 0,7 5,6 11,0 0 0,0
17.11.2018 01:00:00 3,7 0,9 1,3 5,7 11,0 0 0,0
17.11.2018 00:00:00 4,4 0,9 2,1 5,7 11,0 0 0,0
16.11.2018 23:00:00 5,4 0,6 3,2 5,7 11,0 0 0,0
16.11.2018 22:00:00 5,9 0,4 3,5 5,7 11,0 0 0,0
16.11.2018 21:00:00 6,3 0,6 3,7 5,7 11,0 0 0,0
16.11.2018 20:00:00 6,5 0,6 3,5 5,7 11,0 0 0,0
16.11.2018 19:00:00 6,7 1,6 3,2 5,7 11,0 0 0,0
16.11.2018 18:00:00 6,7 1,6 2,3 5,9 11,0 0 0,0
16.11.2018 17:00:00 6,9 1,8 2,7 5,9 11,0 0 0,0
16.11.2018 16:00:00 7,7 2,0 3,6 5,9 11,0 0 0,0
16.11.2018 15:00:00 8,4 1,8 4,3 5,7 11,0 0 0,0
16.11.2018 14:00:00 8,8 1,9 4,8 5,7 11,0 56 0,0
16.11.2018 13:00:00 9,3 2,2 5,0 5,7 11,2 60 0,0
16.11.2018 12:00:00 8,8 2,1 4,3 5,5 11,2 60 0,0
16.11.2018 11:00:00 8,1 2,5 2,3 5,5 11,2 36 0,0
16.11.2018 10:00:00 5,6 2,6 1,1 5,7 11,2 8 0,0
16.11.2018 09:00:00 4,1 2,3 0,4 5,7 11,2 0 0,0
16.11.2018 08:00:00 3,6 1,8 0,0 5,9 11,2 0 0,0
16.11.2018 07:00:00 3,5 1,2 0,1 6,0 11,2 0 0,0
16.11.2018 06:00:00 4,0 1,5 0,4 6,2 11,2 0 0,0
16.11.2018 05:00:00 4,1 1,6 0,8 6,5 11,2 0 0,0
16.11.2018 04:00:00 4,4 1,8 1,2 6,7 11,2 0 0,0
16.11.2018 03:00:00 4,7 2,1 1,5 6,9 11,2 0 0,0
16.11.2018 02:00:00 5,0 2,7 1,9 7,0 11,2 0 0,0
16.11.2018 01:00:00 5,1 3,1 2,4 7,2 11,2 0 0,0
16.11.2018 00:00:00 5,3 3,6 2,7 7,5 11,2 0 0,0
15.11.2018 23:00:00 5,7 4,0 3,1 7,7 11,2 0 0,0
15.11.2018 22:00:00 6,1 4,6 3,6 7,7 11,2 0 0,0
15.11.2018 21:00:00 6,7 4,7 4,0 8,0 11,2 0 0,0
15.11.2018 20:00:00 7,2 5,0 4,5 8,2 11,2 0 0,0
15.11.2018 19:00:00 8,0 4,9 4,9 8,4 11,2 0 0,0
15.11.2018 18:00:00 8,9 5,1 5,6 8,5 11,2 0 0,0
15.11.2018 17:00:00 9,2 5,7 6,4 8,7 11,2 0 0,0
15.11.2018 16:00:00 9,8 6,1 7,8 8,7 11,2 0 0,0
15.11.2018 15:00:00 10,0 6,2 9,3 8,4 11,2 0 0,0
15.11.2018 14:00:00 10,7 5,9 10,5 8,2 11,2 0 0,0
15.11.2018 13:00:00 9,8 6,0 9,9 8,0 11,2 0 0,0
15.11.2018 12:00:00 8,9 5,6 8,8 7,7 11,2 0 0,0
15.11.2018 11:00:00 8,1 5,4 7,8 7,7 11,2 0 0,0
15.11.2018 10:00:00 7,5 5,3 6,8 7,7 11,2 0 0,0
15.11.2018 09:00:00 6,9 5,2 5,8 7,7 11,2 0 0,0
15.11.2018 08:00:00 6,6 5,4 4,7 7,7 11,2 0 0,0
15.11.2018 07:00:00 6,5 5,4 5,1 7,7 11,2 0 0,0
15.11.2018 06:00:00 6,8 5,7 5,4 7,7 11,2 0 0,0
15.11.2018 05:00:00 6,9 5,8 5,3 7,9 11,2 0 0,0
15.11.2018 04:00:00 7,1 5,9 5,3 7,9 11,2 0 0,0
15.11.2018 03:00:00 7,2 6,1 5,3 8,0 11,2 0 0,0
15.11.2018 02:00:00 7,2 6,3 5,3 8,0 11,2 0 0,0
15.11.2018 01:00:00 7,4 6,5 5,5 8,0 11,2 0 0,0
15.11.2018 00:00:00 7,4 6,5 5,3 8,2 11,4 0 0,0
14.11.2018 23:00:00 7,5 6,6 5,3 8,2 11,4 0 0,0
14.11.2018 22:00:00 7,5 6,8 5,4 8,5 11,4 0 0,0
14.11.2018 21:00:00 7,6 6,7 5,2 8,7 11,4 0 0,0
14.11.2018 20:00:00 7,6 6,7 5,5 8,7 11,4 0 0,0
14.11.2018 19:00:00 7,9 6,8 5,9 9,0 11,4 0 0,0
14.11.2018 18:00:00 8,2 7,0 6,5 9,0 11,4 0 0,0
14.11.2018 17:00:00 8,7 7,0 7,5 9,2 11,4 0 0,0
14.11.2018 16:00:00 9,9 7,1 9,3 9,0 11,4 1 0,0
14.11.2018 15:00:00 10,0 7,1 10,9 8,7 11,4 0 0,0
14.11.2018 14:00:00 10,4 7,3 11,3 8,5 11,4 8 -
14.11.2018 13:00:00 10,0 6,9 10,5 8,2 11,4 - 0,0
14.11.2018 12:00:00 10,4 7,1 9,3 8,0 11,4 54 0,0
14.11.2018 11:00:00 9,7 6,8 7,7 8,0 11,4 23 0,0
14.11.2018 10:00:00 8,9 6,5 6,0 8,0 11,4 0 0,0
14.11.2018 09:00:00 8,1 6,2 5,4 8,2 11,4 0 0,0
14.11.2018 08:00:00 7,5 6,0 5,0 8,4 11,4 0 0,0
14.11.2018 07:00:00 7,5 6,0 5,1 8,5 11,4 0 0,0
14.11.2018 06:00:00 7,7 6,0 5,3 8,7 11,4 0 0,0
14.11.2018 05:00:00 8,0 6,0 5,6 8,7 11,4 0 0,0
14.11.2018 04:00:00 8,4 6,0 5,9 8,7 11,4 0 0,0
14.11.2018 03:00:00 8,9 6,2 6,4 8,9 11,4 0 0,0
14.11.2018 02:00:00 9,3 6,4 6,7 9,0 11,4 0 0,0
14.11.2018 01:00:00 9,1 6,4 6,1 9,2 11,4 0 0,0
14.11.2018 00:00:00 9,0 6,4 6,1 9,4 11,4 0 0,0
13.11.2018 23:00:00 8,8 6,8 6,3 9,7 11,4 0 0,0
13.11.2018 22:00:00 9,0 6,8 6,7 9,7 11,4 0 0,0
13.11.2018 21:00:00 9,1 6,9 7,2 9,9 11,4 0 0,0
13.11.2018 20:00:00 9,7 6,6 8,1 10,0 11,4 0 0,0
13.11.2018 19:00:00 10,9 7,0 9,2 10,0 11,4 0 0,0
13.11.2018 18:00:00 11,4 8,6 9,6 10,2 11,4 0 0,0
13.11.2018 17:00:00 12,0 10,1 10,6 10,0 11,4 0 0,2
13.11.2018 16:00:00 12,2 10,1 11,5 10,0 11,4 0 0,0
13.11.2018 15:00:00 12,5 10,4 12,3 9,7 11,4 0 0,0
13.11.2018 14:00:00 12,3 10,7 11,8 9,7 11,4 0 0,2
13.11.2018 13:00:00 11,8 10,9 11,2 9,5 11,4 0 1,1
13.11.2018 12:00:00 11,5 10,9 10,7 9,2 11,4 0 1,3
13.11.2018 11:00:00 11,5 11,0 10,2 9,2 11,4 0 0,7
13.11.2018 10:00:00 11,0 10,7 9,5 9,2 11,4 0 2,0
13.11.2018 09:00:00 10,7 10,5 9,1 9,0 11,4 0 1,6
13.11.2018 08:00:00 10,3 9,8 8,8 9,0 11,4 0 0,8
13.11.2018 07:00:00 10,1 9,6 8,6 9,0 11,4 0 0,4
13.11.2018 06:00:00 10,1 9,2 8,3 9,0 11,4 0 0,3
13.11.2018 05:00:00 10,4 8,8 8,0 9,0 11,4 0 0,1
13.11.2018 04:00:00 10,9 7,9 7,7 9,0 11,4 0 0,0
13.11.2018 03:00:00 10,7 7,8 7,5 9,2 11,4 0 0,0
13.11.2018 02:00:00 11,7 7,8 7,7 9,2 11,4 0 0,0
13.11.2018 01:00:00 11,8 7,7 8,2 9,2 11,4 0 0,0
13.11.2018 00:00:00 12,0 7,5 8,2 9,4 11,4 0 0,0
12.11.2018 23:00:00 11,7 7,4 7,8 9,5 11,4 0 0,0
12.11.2018 22:00:00 11,3 7,6 7,8 9,7 11,4 0 0,0
12.11.2018 21:00:00 11,8 7,9 8,4 9,7 11,4 0 0,0
12.11.2018 20:00:00 12,5 8,2 9,0 9,7 11,4 0 0,0
12.11.2018 19:00:00 13,2 8,5 9,4 9,7 11,4 0 0,0
12.11.2018 18:00:00 13,8 9,2 9,6 9,7 11,4 0 0,0
12.11.2018 17:00:00 13,7 9,3 10,1 9,7 11,4 0 0,0
12.11.2018 16:00:00 14,2 9,0 11,1 9,7 11,4 0 0,0
12.11.2018 15:00:00 14,2 8,8 12,2 9,2 11,4 4 0,0
12.11.2018 14:00:00 14,0 8,6 12,8 9,0 11,4 5 0,0
12.11.2018 13:00:00 13,1 8,8 11,7 8,7 11,4 0 0,0
12.11.2018 12:00:00 12,8 8,9 11,5 8,5 11,4 3 0,0
12.11.2018 11:00:00 12,0 8,8 9,9 8,2 11,4 0 0,0
12.11.2018 10:00:00 10,7 8,5 8,4 8,2 11,4 0 0,0
12.11.2018 09:00:00 9,9 8,2 7,4 8,2 11,4 0 0,0
12.11.2018 08:00:00 9,5 7,9 6,5 8,2 11,4 0 0,0
12.11.2018 07:00:00 9,5 8,1 6,4 8,2 11,5 0 0,0
12.11.2018 06:00:00 9,6 7,9 6,6 8,2 11,5 0 0,0
12.11.2018 05:00:00 9,4 7,8 6,8 8,2 11,5 0 0,0

tt = Température de l'air
td = dewpoint
tt -5cm = Température de l'air -5cm
tt -20cm = Température de l'air -20cm
tt -100cm = Température de l'air -100cm
sd = Ensoleillement
rr = Quantités de précipitations

stations d'obs. à proximité